Time,TemperatureF,DewpointF,PressureIn,WindDirection,WindDirectionDegrees,WindSpeedMPH,WindSpeedGustMPH,Humidity,HourlyPrecipIn,Conditions,Clouds,dailyrainin,SoftwareType,DateUTC
2013-03-08 00:02:00,65.4,62.4,30.14,SE,131,5.1,5.8,90,0.00,,FEW,0.00,WeatherDisplay:10.37,2013-03-08 06:02:00,
2013-03-08 00:07:00,65.4,62.4,30.14,ESE,116,7.4,9.2,90,0.00,,FEW,0.00,WeatherDisplay:10.37,2013-03-08 06:07:00,
2013-03-08 00:12:00,65.5,62.2,30.14,SE,140,4.7,6.9,89,0.00,,FEW,0.00,WeatherDisplay:10.37,2013-03-08 06:12:00,
2013-03-08 00:17:00,65.5,62.2,30.13,SE,128,7.1,7.1,89,0.00,,FEW,0.00,WeatherDisplay:10.37,2013-03-08 06:17:00,
2013-03-08 00:22:00,65.4,62.1,30.12,SE,138,6.9,7.4,89,0.00,,FEW,0.00,WeatherDisplay:10.37,2013-03-08 06:22:00,
2013-03-08 00:27:00,65.3,62.3,30.12,SE,131,7.7,12.7,90,0.00,,FEW,0.00,WeatherDisplay:10.37,2013-03-08 06:27:00,
2013-03-08 00:32:00,65.3,62.3,30.13,ESE,109,4.1,8.1,90,0.00,,FEW,0.00,WeatherDisplay:10.37,2013-03-08 06:32:00,
2013-03-08 00:37:00,65.3,62.3,30.13,East,86,5.0,8.1,90,0.00,,FEW,0.00,WeatherDisplay:10.37,2013-03-08 06:37:00,
2013-03-08 00:42:00,65.2,62.2,30.13,SSE,159,5.2,6.9,90,0.00,,FEW,0.00,WeatherDisplay:10.37,2013-03-08 06:42:00,
2013-03-08 00:47:00,65.1,62.1,30.13,ESE,118,5.0,5.3,90,0.00,,FEW,0.00,WeatherDisplay:10.37,2013-03-08 06:47:00,
2013-03-08 00:52:00,65.1,62.4,30.13,SE,127,5.5,5.8,91,0.00,,FEW,0.00,WeatherDisplay:10.37,2013-03-08 06:52:00,
2013-03-08 00:57:00,65.0,62.3,30.13,SE,131,4.6,6.9,91,0.00,,FEW,0.00,WeatherDisplay:10.37,2013-03-08 06:57:00,
2013-03-08 01:02:00,65.0,62.3,30.13,ESE,123,3.5,5.8,91,0.00,,FEW,0.00,WeatherDisplay:10.37,2013-03-08 07:02:00,
2013-03-08 01:07:00,65.0,62.3,30.13,SSE,150,3.5,5.3,91,0.00,,FEW,0.00,WeatherDisplay:10.37,2013-03-08 07:07:00,
2013-03-08 01:12:00,65.0,62.6,30.13,East,95,5.1,5.1,92,0.00,,FEW,0.00,WeatherDisplay:10.37,2013-03-08 07:12:00,
2013-03-08 01:17:00,65.0,62.6,30.13,SSE,147,1.6,4.6,92,0.00,,FEW,0.00,WeatherDisplay:10.37,2013-03-08 07:17:00,
2013-03-08 01:22:00,65.0,62.6,30.13,East,92,3.1,5.8,92,0.00,,FEW,0.00,WeatherDisplay:10.37,2013-03-08 07:22:00,
2013-03-08 01:27:00,65.1,62.7,30.13,SE,133,3.9,3.9,92,0.00,,FEW,0.00,WeatherDisplay:10.37,2013-03-08 07:27:00,
2013-03-08 01:32:00,65.3,62.9,30.12,SE,133,6.6,6.9,92,0.00,,FEW,0.00,WeatherDisplay:10.37,2013-03-08 07:32:00,
2013-03-08 01:37:00,65.4,63.0,30.12,SE,140,5.1,9.2,92,0.00,,FEW,0.00,WeatherDisplay:10.37,2013-03-08 07:37:00,
2013-03-08 01:42:00,65.5,63.1,30.11,South,176,6.3,11.5,92,0.00,,FEW,0.00,WeatherDisplay:10.37,2013-03-08 07:42:00,
2013-03-08 01:47:00,65.6,63.2,30.11,SE,135,3.7,8.1,92,0.00,,FEW,0.00,WeatherDisplay:10.37,2013-03-08 07:47:00,
2013-03-08 01:52:00,65.6,63.2,30.11,SE,124,5.4,5.8,92,0.00,,FEW,0.00,WeatherDisplay:10.37,2013-03-08 07:52:00,
2013-03-08 01:57:00,65.6,63.2,30.11,SSE,168,2.9,8.1,92,0.00,,FEW,0.00,WeatherDisplay:10.37,2013-03-08 07:57:00,
2013-03-08 02:02:00,65.6,63.2,30.11,SSE,156,4.6,6.9,92,0.00,,FEW,0.00,WeatherDisplay:10.37,2013-03-08 08:02:00,
2013-03-08 02:07:00,65.6,63.2,30.10,ESE,114,5.5,6.9,92,0.00,,FEW,0.00,WeatherDisplay:10.37,2013-03-08 08:07:00,
2013-03-08 02:12:00,65.6,63.2,30.10,SE,140,4.4,6.9,92,0.00,,FEW,0.00,WeatherDisplay:10.37,2013-03-08 08:12:00,
2013-03-08 02:17:00,65.6,63.2,30.10,SSE,155,3.9,5.8,92,0.00,,FEW,0.00,WeatherDisplay:10.37,2013-03-08 08:17:00,
2013-03-08 02:22:00,65.5,63.1,30.10,SE,141,3.9,5.8,92,0.00,,FEW,0.00,WeatherDisplay:10.37,2013-03-08 08:22:00,
2013-03-08 02:27:00,65.5,63.1,30.10,SE,141,1.7,5.8,92,0.00,,FEW,0.00,WeatherDisplay:10.37,2013-03-08 08:27:00,
2013-03-08 02:32:00,65.5,63.1,30.10,SE,124,3.5,5.8,92,0.00,,FEW,0.00,WeatherDisplay:10.37,2013-03-08 08:32:00,
2013-03-08 02:37:00,65.4,63.3,30.10,SE,141,5.7,6.9,93,0.00,,FEW,0.00,WeatherDisplay:10.37,2013-03-08 08:37:00,
2013-03-08 02:42:00,65.4,63.3,30.10,ESE,105,4.4,5.8,93,0.00,,FEW,0.00,WeatherDisplay:10.37,2013-03-08 08:42:00,
2013-03-08 02:47:00,65.4,63.3,30.09,SE,145,3.8,5.8,93,0.00,,FEW,0.00,WeatherDisplay:10.37,2013-03-08 08:47:00,
2013-03-08 02:52:00,65.4,63.3,30.09,ESE,114,2.8,5.8,93,0.00,,FEW,0.00,WeatherDisplay:10.37,2013-03-08 08:52:00,
2013-03-08 02:57:00,65.4,63.3,30.09,ESE,123,2.9,6.9,93,0.00,,FEW,0.00,WeatherDisplay:10.37,2013-03-08 08:57:00,
2013-03-08 03:02:00,65.5,63.4,30.09,ESE,118,5.8,9.2,93,0.00,,FEW,0.00,WeatherDisplay:10.37,2013-03-08 09:02:00,
2013-03-08 03:07:00,65.6,63.5,30.09,ESE,104,4.8,5.8,93,0.00,,FEW,0.00,WeatherDisplay:10.37,2013-03-08 09:07:00,
2013-03-08 03:12:00,65.7,63.6,30.09,SE,136,6.3,8.1,93,0.00,,FEW,0.00,WeatherDisplay:10.37,2013-03-08 09:12:00,
2013-03-08 03:17:00,65.8,63.7,30.09,ESE,116,3.9,8.1,93,0.00,,FEW,0.00,WeatherDisplay:10.37,2013-03-08 09:17:00,
2013-03-08 03:22:00,65.8,63.7,30.09,ESE,120,3.9,4.6,93,0.00,,FEW,0.00,WeatherDisplay:10.37,2013-03-08 09:22:00,
2013-03-08 03:27:00,65.9,63.8,30.08,ESE,121,4.2,5.8,93,0.00,,FEW,0.00,WeatherDisplay:10.37,2013-03-08 09:27:00,
2013-03-08 03:32:00,65.9,63.8,30.08,ESE,118,5.0,5.8,93,0.00,,FEW,0.00,WeatherDisplay:10.37,2013-03-08 09:32:00,
2013-03-08 03:37:00,65.8,63.7,30.08,SE,130,4.0,5.8,93,0.00,,FEW,0.00,WeatherDisplay:10.37,2013-03-08 09:37:00,
2013-03-08 03:42:00,65.8,63.7,30.08,East,95,3.7,5.8,93,0.00,,FEW,0.00,WeatherDisplay:10.37,2013-03-08 09:42:00,
2013-03-08 03:47:00,65.7,63.6,30.09,SE,129,1.9,8.1,93,0.00,,FEW,0.00,WeatherDisplay:10.37,2013-03-08 09:47:00,
2013-03-08 03:52:00,65.6,63.5,30.08,SE,128,2.9,4.6,93,0.00,,FEW,0.00,WeatherDisplay:10.37,2013-03-08 09:52:00,
2013-03-08 03:57:00,65.5,63.4,30.07,SE,137,3.6,6.9,93,0.00,,FEW,0.00,WeatherDisplay:10.37,2013-03-08 09:57:00,
2013-03-08 04:02:00,65.4,63.6,30.06,SSE,149,4.6,9.4,94,0.00,,FEW,0.00,WeatherDisplay:10.37,2013-03-08 10:02:00,
2013-03-08 04:07:00,65.3,63.5,30.06,ESE,116,4.4,7.4,94,0.00,,FEW,0.00,WeatherDisplay:10.37,2013-03-08 10:07:00,
2013-03-08 04:12:00,65.3,63.5,30.06,SE,130,3.5,5.8,94,0.00,,FEW,0.00,WeatherDisplay:10.37,2013-03-08 10:12:00,
2013-03-08 04:17:00,65.3,63.5,30.07,SSE,150,1.9,3.5,94,0.00,,FEW,0.00,WeatherDisplay:10.37,2013-03-08 10:17:00,
2013-03-08 04:22:00,65.3,63.5,30.07,SSE,153,2.7,4.6,94,0.00,,FEW,0.00,WeatherDisplay:10.37,2013-03-08 10:22:00,
2013-03-08 04:27:00,65.4,63.6,30.08,SE,126,5.5,6.9,94,0.00,,FEW,0.00,WeatherDisplay:10.37,2013-03-08 10:27:00,
2013-03-08 04:32:00,65.4,63.6,30.07,SSE,159,6.3,6.3,94,0.00,,FEW,0.00,WeatherDisplay:10.37,2013-03-08 10:32:00,
2013-03-08 04:37:00,65.4,63.6,30.08,SSE,157,3.3,4.6,94,0.00,,FEW,0.00,WeatherDisplay:10.37,2013-03-08 10:37:00,
2013-03-08 04:42:00,65.5,63.7,30.08,ESE,104,2.9,5.8,94,0.00,,FEW,0.00,WeatherDisplay:10.37,2013-03-08 10:42:00,
2013-03-08 04:47:00,65.5,63.7,30.07,SE,129,4.9,5.8,94,0.00,,FEW,0.00,WeatherDisplay:10.37,2013-03-08 10:47:00,
2013-03-08 04:52:00,65.5,63.7,30.07,South,175,3.0,5.8,94,0.00,,FEW,0.00,WeatherDisplay:10.37,2013-03-08 10:52:00,
2013-03-08 04:57:00,65.5,63.7,30.07,SE,133,5.0,5.0,94,0.00,,FEW,0.00,WeatherDisplay:10.37,2013-03-08 10:57:00,
2013-03-08 05:02:00,65.5,63.7,30.07,ESE,122,3.8,5.8,94,0.00,,FEW,0.00,WeatherDisplay:10.37,2013-03-08 11:02:00,
2013-03-08 05:07:00,65.5,63.7,30.07,SSE,147,5.0,5.8,94,0.00,,FEW,0.00,WeatherDisplay:10.37,2013-03-08 11:07:00,
2013-03-08 05:12:00,65.4,63.6,30.07,ESE,111,3.7,6.9,94,0.00,,FEW,0.00,WeatherDisplay:10.37,2013-03-08 11:12:00,
2013-03-08 05:17:00,65.4,63.6,30.07,ESE,120,3.4,4.6,94,0.00,,FEW,0.00,WeatherDisplay:10.37,2013-03-08 11:17:00,
2013-03-08 05:22:00,65.5,63.7,30.07,ESE,114,3.7,6.3,94,0.00,,FEW,0.00,WeatherDisplay:10.37,2013-03-08 11:22:00,
2013-03-08 05:27:00,65.5,63.7,30.08,SSE,148,4.6,8.1,94,0.00,,FEW,0.00,WeatherDisplay:10.37,2013-03-08 11:27:00,
2013-03-08 05:32:00,65.6,63.8,30.09,SSE,158,3.7,6.9,94,0.00,,FEW,0.00,WeatherDisplay:10.37,2013-03-08 11:32:00,
2013-03-08 05:37:00,65.7,63.9,30.09,SE,142,5.3,7.4,94,0.00,,FEW,0.00,WeatherDisplay:10.37,2013-03-08 11:37:00,
2013-03-08 05:42:00,65.9,64.1,30.09,SE,144,3.7,5.3,94,0.00,,FEW,0.00,WeatherDisplay:10.37,2013-03-08 11:42:00,
2013-03-08 05:47:00,66.0,64.2,30.09,ENE,62,8.1,8.1,94,0.00,,FEW,0.00,WeatherDisplay:10.37,2013-03-08 11:47:00,
2013-03-08 05:52:00,66.1,64.3,30.10,SE,136,4.1,5.8,94,0.00,,FEW,0.00,WeatherDisplay:10.37,2013-03-08 11:52:00,
2013-03-08 05:57:00,66.1,64.3,30.10,SE,136,3.0,5.8,94,0.00,,FEW,0.00,WeatherDisplay:10.37,2013-03-08 11:57:00,
2013-03-08 06:02:00,66.2,64.4,30.09,ESE,123,5.2,5.8,94,0.00,,FEW,0.00,WeatherDisplay:10.37,2013-03-08 12:02:00,
2013-03-08 06:07:00,66.2,64.4,30.08,SE,138,7.3,9.2,94,0.00,,FEW,0.00,WeatherDisplay:10.37,2013-03-08 12:07:00,
2013-03-08 06:12:00,66.2,64.4,30.08,South,169,4.7,6.9,94,0.00,,FEW,0.00,WeatherDisplay:10.37,2013-03-08 12:12:00,
2013-03-08 06:17:00,66.1,64.3,30.09,SSE,154,4.6,5.8,94,0.00,,FEW,0.00,WeatherDisplay:10.37,2013-03-08 12:17:00,
2013-03-08 06:22:00,66.0,64.2,30.09,SE,140,4.0,5.8,94,0.00,,FEW,0.00,WeatherDisplay:10.37,2013-03-08 12:22:00,
2013-03-08 06:27:00,66.0,64.2,30.08,ESE,116,4.0,5.8,94,0.00,,FEW,0.00,WeatherDisplay:10.37,2013-03-08 12:27:00,
2013-03-08 06:32:00,66.1,64.3,30.08,ESE,103,5.4,5.8,94,0.00,,FEW,0.00,WeatherDisplay:10.37,2013-03-08 12:32:00,
2013-03-08 06:37:00,66.1,64.3,30.09,ESE,123,5.2,8.1,94,0.00,,FEW,0.00,WeatherDisplay:10.37,2013-03-08 12:37:00,
2013-03-08 06:42:00,66.2,64.4,30.09,SSE,150,3.1,4.6,94,0.00,,FEW,0.00,WeatherDisplay:10.37,2013-03-08 12:42:00,
2013-03-08 06:47:00,66.3,64.5,30.09,SSE,155,5.1,8.1,94,0.00,,FEW,0.00,WeatherDisplay:10.37,2013-03-08 12:47:00,
2013-03-08 06:52:00,66.4,64.6,30.09,SE,142,5.8,8.1,94,0.00,,FEW,0.00,WeatherDisplay:10.37,2013-03-08 12:52:00,
2013-03-08 06:57:00,66.5,64.4,30.10,SSE,151,5.1,8.1,93,0.00,,FEW,0.00,WeatherDisplay:10.37,2013-03-08 12:57:00,
2013-03-08 07:02:00,66.7,64.6,30.10,SE,142,7.0,9.2,93,0.00,,FEW,0.00,WeatherDisplay:10.37,2013-03-08 13:02:00,
2013-03-08 07:07:00,66.8,64.7,30.09,ESE,105,7.0,9.2,93,0.00,,FEW,0.00,WeatherDisplay:10.37,2013-03-08 13:07:00,
2013-03-08 07:12:00,66.9,64.8,30.09,SE,140,3.6,4.6,93,0.00,,FEW,0.00,WeatherDisplay:10.37,2013-03-08 13:12:00,
2013-03-08 07:17:00,66.9,64.8,30.10,SE,124,4.0,5.8,93,0.00,,FEW,0.00,WeatherDisplay:10.37,2013-03-08 13:17:00,
2013-03-08 07:22:00,67.0,64.9,30.10,SE,144,6.2,8.1,93,0.00,,FEW,0.00,WeatherDisplay:10.37,2013-03-08 13:22:00,
2013-03-08 07:27:00,67.0,64.9,30.10,ESE,103,5.2,9.4,93,0.00,,FEW,0.00,WeatherDisplay:10.37,2013-03-08 13:27:00,
2013-03-08 07:32:00,67.1,65.0,30.10,SE,136,4.7,8.4,93,0.00,,FEW,0.00,WeatherDisplay:10.37,2013-03-08 13:32:00,
2013-03-08 07:37:00,67.2,65.1,30.10,SE,125,4.5,6.9,93,0.00,,FEW,0.00,WeatherDisplay:10.37,2013-03-08 13:37:00,
2013-03-08 07:42:00,67.3,65.2,30.10,SSE,163,6.8,8.1,93,0.00,,FEW,0.00,WeatherDisplay:10.37,2013-03-08 13:42:00,
2013-03-08 07:47:00,67.3,64.9,30.10,ESE,123,7.9,10.4,92,0.00,,FEW,0.00,WeatherDisplay:10.37,2013-03-08 13:47:00,
2013-03-08 07:52:00,67.4,65.0,30.10,SE,135,5.4,6.9,92,0.00,,FEW,0.00,WeatherDisplay:10.37,2013-03-08 13:52:00,
2013-03-08 07:57:00,67.4,65.0,30.10,SE,142,3.4,9.2,92,0.00,,FEW,0.00,WeatherDisplay:10.37,2013-03-08 13:57:00,
2013-03-08 08:02:00,67.5,65.1,30.11,SE,142,4.6,8.1,92,0.00,,FEW,0.00,WeatherDisplay:10.37,2013-03-08 14:02:00,
2013-03-08 08:07:00,67.6,65.2,30.11,ESE,121,7.2,10.5,92,0.00,,FEW,0.00,WeatherDisplay:10.37,2013-03-08 14:07:00,
2013-03-08 08:12:00,67.7,65.3,30.11,SE,145,6.7,8.1,92,0.00,,FEW,0.00,WeatherDisplay:10.37,2013-03-08 14:12:00,
2013-03-08 08:17:00,67.8,65.4,30.11,SE,131,6.3,8.1,92,0.00,,FEW,0.00,WeatherDisplay:10.37,2013-03-08 14:17:00,
2013-03-08 08:22:00,67.9,65.5,30.11,ESE,111,6.0,9.2,92,0.00,,FEW,0.00,WeatherDisplay:10.37,2013-03-08 14:22:00,
2013-03-08 08:27:00,68.0,65.6,30.11,SE,130,7.7,10.4,92,0.00,,FEW,0.00,WeatherDisplay:10.37,2013-03-08 14:27:00,
2013-03-08 08:32:00,68.2,65.5,30.11,SE,133,7.4,10.4,91,0.00,,FEW,0.00,WeatherDisplay:10.37,2013-03-08 14:32:00,
2013-03-08 08:37:00,68.4,65.7,30.11,East,98,5.0,6.9,91,0.00,,FEW,0.00,WeatherDisplay:10.37,2013-03-08 14:37:00,
2013-03-08 08:42:00,68.4,65.7,30.11,SSE,152,5.8,8.1,91,0.00,,FEW,0.00,WeatherDisplay:10.37,2013-03-08 14:42:00,
2013-03-08 08:47:00,68.6,65.9,30.11,South,173,3.2,5.8,91,0.00,,FEW,0.00,WeatherDisplay:10.37,2013-03-08 14:47:00,
2013-03-08 08:52:00,68.7,65.6,30.10,SSE,152,5.8,9.2,90,0.00,,FEW,0.00,WeatherDisplay:10.37,2013-03-08 14:52:00,
2013-03-08 08:57:00,68.8,65.7,30.11,ESE,103,7.0,10.4,90,0.00,,FEW,0.00,WeatherDisplay:10.37,2013-03-08 14:57:00,
2013-03-08 09:02:00,68.9,65.8,30.11,East,91,5.9,6.9,90,0.00,,FEW,0.00,WeatherDisplay:10.37,2013-03-08 15:02:00,
2013-03-08 09:07:00,68.9,65.8,30.12,SE,124,6.9,9.2,90,0.00,,FEW,0.00,WeatherDisplay:10.37,2013-03-08 15:07:00,
2013-03-08 09:12:00,69.0,65.9,30.11,ESE,111,8.4,13.8,90,0.00,,FEW,0.00,WeatherDisplay:10.37,2013-03-08 15:12:00,
2013-03-08 09:17:00,69.0,65.9,30.12,SE,141,5.6,6.9,90,0.00,,FEW,0.00,WeatherDisplay:10.37,2013-03-08 15:17:00,
2013-03-08 09:22:00,69.2,66.1,30.12,SE,135,6.2,9.4,90,0.00,,FEW,0.00,WeatherDisplay:10.37,2013-03-08 15:22:00,
2013-03-08 09:27:00,69.3,66.2,30.12,SSW,199,7.1,9.2,90,0.00,,FEW,0.00,WeatherDisplay:10.37,2013-03-08 15:27:00,
2013-03-08 09:32:00,69.5,66.1,30.12,SSE,159,4.4,5.8,89,0.00,,FEW,0.00,WeatherDisplay:10.37,2013-03-08 15:32:00,
2013-03-08 09:37:00,69.6,66.2,30.12,East,90,5.5,9.2,89,0.00,,FEW,0.00,WeatherDisplay:10.37,2013-03-08 15:37:00,
2013-03-08 09:42:00,69.8,66.4,30.12,SE,142,5.5,6.9,89,0.00,,FEW,0.00,WeatherDisplay:10.37,2013-03-08 15:42:00,
2013-03-08 09:47:00,69.9,66.2,30.12,SE,130,6.7,10.4,88,0.00,,FEW,0.00,WeatherDisplay:10.37,2013-03-08 15:47:00,
2013-03-08 09:52:00,69.8,66.4,30.12,SSE,152,8.3,12.7,89,0.00,,FEW,0.00,WeatherDisplay:10.37,2013-03-08 15:52:00,
2013-03-08 09:57:00,69.5,66.1,30.12,SE,141,4.9,9.2,89,0.00,,FEW,0.00,WeatherDisplay:10.37,2013-03-08 15:57:00,
2013-03-08 10:02:00,69.3,65.9,30.12,SE,127,8.5,15.0,89,0.00,,FEW,0.00,WeatherDisplay:10.37,2013-03-08 16:02:00,
2013-03-08 10:07:00,69.2,66.1,30.12,SSE,151,7.5,9.2,90,0.00,,FEW,0.00,WeatherDisplay:10.37,2013-03-08 16:07:00,
2013-03-08 10:12:00,69.3,66.2,30.13,SSE,151,4.3,10.5,90,0.00,,FEW,0.00,WeatherDisplay:10.37,2013-03-08 16:12:00,
2013-03-08 10:17:00,69.4,66.3,30.13,ESE,111,6.9,8.1,90,0.00,,FEW,0.00,WeatherDisplay:10.37,2013-03-08 16:17:00,
2013-03-08 10:22:00,69.5,66.4,30.12,ESE,102,3.7,5.8,90,0.00,,FEW,0.00,WeatherDisplay:10.37,2013-03-08 16:22:00,
2013-03-08 10:27:00,69.6,66.2,30.13,ESE,109,7.3,11.5,89,0.00,,FEW,0.00,WeatherDisplay:10.37,2013-03-08 16:27:00,
2013-03-08 10:32:00,69.8,66.4,30.13,East,92,5.4,6.9,89,0.00,,FEW,0.00,WeatherDisplay:10.37,2013-03-08 16:32:00,
2013-03-08 10:37:00,70.0,66.6,30.13,ESE,118,6.4,9.2,89,0.00,,FEW,0.00,WeatherDisplay:10.37,2013-03-08 16:37:00,
2013-03-08 10:42:00,70.3,66.9,30.13,SE,126,7.2,11.5,89,0.00,,FEW,0.00,WeatherDisplay:10.37,2013-03-08 16:42:00,
2013-03-08 10:47:00,70.4,66.7,30.14,SE,128,4.1,11.6,88,0.00,,FEW,0.00,WeatherDisplay:10.37,2013-03-08 16:47:00,
2013-03-08 10:52:00,70.6,66.9,30.14,SE,144,9.3,10.5,88,0.00,,FEW,0.00,WeatherDisplay:10.37,2013-03-08 16:52:00,
2013-03-08 10:57:00,70.9,67.2,30.14,ESE,123,6.6,11.5,88,0.00,,FEW,0.00,WeatherDisplay:10.37,2013-03-08 16:57:00,
2013-03-08 11:02:00,71.4,67.3,30.14,SSE,161,5.2,8.1,87,0.00,,FEW,0.00,WeatherDisplay:10.37,2013-03-08 17:02:00,
2013-03-08 11:07:00,71.7,67.3,30.13,SSE,152,6.3,8.4,86,0.00,,FEW,0.00,WeatherDisplay:10.37,2013-03-08 17:07:00,
2013-03-08 11:12:00,71.9,67.1,30.14,SE,138,11.0,12.7,85,0.00,,FEW,0.00,WeatherDisplay:10.37,2013-03-08 17:12:00,
2013-03-08 11:17:00,72.2,67.4,30.13,SE,124,5.2,6.9,85,0.00,,FEW,0.00,WeatherDisplay:10.37,2013-03-08 17:17:00,
2013-03-08 11:22:00,72.4,67.6,30.12,SSE,159,10.8,15.0,85,0.00,,FEW,0.00,WeatherDisplay:10.37,2013-03-08 17:22:00,
2013-03-08 11:27:00,72.3,67.5,30.12,SE,135,10.9,13.8,85,0.00,,FEW,0.00,WeatherDisplay:10.37,2013-03-08 17:27:00,
2013-03-08 11:32:00,72.1,67.3,30.12,SE,124,7.8,12.7,85,0.00,,FEW,0.00,WeatherDisplay:10.37,2013-03-08 17:32:00,
2013-03-08 11:37:00,72.3,67.5,30.12,East,88,9.9,15.0,85,0.00,,FEW,0.00,WeatherDisplay:10.37,2013-03-08 17:37:00,
2013-03-08 11:42:00,72.3,67.5,30.11,SE,142,12.5,15.0,85,0.00,,FEW,0.00,WeatherDisplay:10.37,2013-03-08 17:42:00,
2013-03-08 11:47:00,72.5,67.0,30.11,ESE,115,14.3,20.7,83,0.00,,FEW,0.00,WeatherDisplay:10.37,2013-03-08 17:47:00,
2013-03-08 11:52:00,72.7,67.6,30.11,ESE,111,6.7,12.6,84,0.00,,FEW,0.00,WeatherDisplay:10.37,2013-03-08 17:52:00,
2013-03-08 11:57:00,73.3,67.8,30.11,ESE,109,8.3,15.0,83,0.00,,FEW,0.00,WeatherDisplay:10.37,2013-03-08 17:57:00,
2013-03-08 12:02:00,73.2,67.7,30.11,ESE,119,8.6,12.7,83,0.00,,FEW,0.00,WeatherDisplay:10.37,2013-03-08 18:02:00,
2013-03-08 12:07:00,72.7,67.2,30.11,East,90,12.9,17.3,83,0.00,,FEW,0.00,WeatherDisplay:10.37,2013-03-08 18:07:00,
2013-03-08 12:12:00,72.2,67.1,30.11,ESE,114,6.3,8.1,84,0.00,,FEW,0.00,WeatherDisplay:10.37,2013-03-08 18:12:00,
2013-03-08 12:17:00,72.1,67.0,30.11,SE,141,8.9,13.7,84,0.00,,FEW,0.00,WeatherDisplay:10.37,2013-03-08 18:17:00,
2013-03-08 12:22:00,72.3,67.2,30.10,SE,125,8.8,13.8,84,0.00,,FEW,0.00,WeatherDisplay:10.37,2013-03-08 18:22:00,
2013-03-08 12:27:00,72.3,67.2,30.10,ESE,111,12.6,16.1,84,0.00,,FEW,0.00,WeatherDisplay:10.37,2013-03-08 18:27:00,
2013-03-08 12:32:00,72.5,67.4,30.09,SE,130,13.1,18.4,84,0.00,,FEW,0.00,WeatherDisplay:10.37,2013-03-08 18:32:00,
2013-03-08 12:37:00,72.9,67.4,30.09,SE,137,11.8,16.1,83,0.00,,FEW,0.00,WeatherDisplay:10.37,2013-03-08 18:37:00,
2013-03-08 12:42:00,73.4,67.6,30.08,SE,131,13.4,16.1,82,0.00,,FEW,0.00,WeatherDisplay:10.37,2013-03-08 18:42:00,
2013-03-08 12:47:00,73.7,67.5,30.08,ESE,112,12.8,17.3,81,0.00,,FEW,0.00,WeatherDisplay:10.37,2013-03-08 18:47:00,
2013-03-08 12:52:00,73.2,67.4,30.08,ESE,102,12.3,13.8,82,0.00,,FEW,0.00,WeatherDisplay:10.37,2013-03-08 18:52:00,
2013-03-08 12:57:00,73.0,67.2,30.08,ESE,123,12.9,15.8,82,0.00,,FEW,0.00,WeatherDisplay:10.37,2013-03-08 18:57:00,
2013-03-08 13:02:00,73.6,67.8,30.08,ESE,114,7.7,13.8,82,0.00,,FEW,0.00,WeatherDisplay:10.37,2013-03-08 19:02:00,
2013-03-08 13:07:00,73.2,67.4,30.07,SE,133,12.2,18.4,82,0.00,,FEW,0.00,WeatherDisplay:10.37,2013-03-08 19:07:00,
2013-03-08 13:12:00,72.8,67.0,30.07,ESE,115,11.0,16.1,82,0.00,,FEW,0.00,WeatherDisplay:10.37,2013-03-08 19:12:00,
2013-03-08 13:17:00,72.6,67.1,30.07,East,85,12.4,16.1,83,0.00,,FEW,0.00,WeatherDisplay:10.37,2013-03-08 19:17:00,
2013-03-08 13:22:00,72.4,66.9,30.06,East,101,8.6,15.0,83,0.00,,FEW,0.00,WeatherDisplay:10.37,2013-03-08 19:22:00,
2013-03-08 13:27:00,72.3,66.8,30.06,ESE,106,11.9,24.2,83,0.00,,FEW,0.00,WeatherDisplay:10.37,2013-03-08 19:27:00,
2013-03-08 13:32:00,72.1,67.0,30.06,ESE,111,9.2,15.0,84,0.00,,FEW,0.00,WeatherDisplay:10.37,2013-03-08 19:32:00,
2013-03-08 13:37:00,72.0,66.9,30.06,ESE,106,13.8,17.9,84,0.00,,FEW,0.00,WeatherDisplay:10.37,2013-03-08 19:37:00,
2013-03-08 13:42:00,72.0,67.2,30.05,ESE,102,12.2,18.4,85,0.00,,FEW,0.00,WeatherDisplay:10.37,2013-03-08 19:42:00,
2013-03-08 13:47:00,72.8,67.7,30.05,East,81,9.1,17.3,84,0.00,,FEW,0.00,WeatherDisplay:10.37,2013-03-08 19:47:00,
2013-03-08 13:52:00,72.9,67.1,30.05,ESE,106,10.3,16.1,82,0.00,,FEW,0.00,WeatherDisplay:10.37,2013-03-08 19:52:00,
2013-03-08 13:57:00,73.3,67.1,30.06,ESE,121,11.3,18.4,81,0.00,,FEW,0.00,WeatherDisplay:10.37,2013-03-08 19:57:00,
2013-03-08 14:02:00,73.2,67.0,30.06,ESE,109,8.6,16.1,81,0.00,,FEW,0.00,WeatherDisplay:10.37,2013-03-08 20:02:00,
2013-03-08 14:07:00,73.1,66.9,30.05,SSE,161,12.7,24.2,81,0.00,,FEW,0.00,WeatherDisplay:10.37,2013-03-08 20:07:00,
2013-03-08 14:12:00,72.6,66.8,30.05,ESE,115,11.2,15.0,82,0.00,,FEW,0.00,WeatherDisplay:10.37,2013-03-08 20:12:00,
2013-03-08 14:17:00,72.1,66.3,30.05,ESE,108,12.5,16.1,82,0.00,,FEW,0.00,WeatherDisplay:10.37,2013-03-08 20:17:00,
2013-03-08 14:22:00,71.5,66.4,30.05,ESE,106,9.4,13.8,84,0.00,,FEW,0.00,WeatherDisplay:10.37,2013-03-08 20:22:00,
2013-03-08 14:27:00,71.4,66.3,30.06,East,80,12.9,20.7,84,0.00,,FEW,0.00,WeatherDisplay:10.37,2013-03-08 20:27:00,
2013-03-08 14:32:00,71.3,66.2,30.06,SE,125,7.5,15.0,84,0.00,,FEW,0.00,WeatherDisplay:10.37,2013-03-08 20:32:00,
2013-03-08 14:37:00,71.3,66.2,30.05,ESE,117,10.1,16.1,84,0.00,,FEW,0.00,WeatherDisplay:10.37,2013-03-08 20:37:00,
2013-03-08 14:42:00,71.3,66.2,30.05,ENE,73,18.8,18.8,84,0.00,,FEW,0.00,WeatherDisplay:10.37,2013-03-08 20:42:00,
2013-03-08 14:47:00,71.4,66.3,30.05,ESE,123,8.5,16.1,84,0.00,,FEW,0.00,WeatherDisplay:10.37,2013-03-08 20:47:00,
2013-03-08 14:52:00,71.5,66.4,30.06,ESE,123,9.2,15.0,84,0.00,,FEW,0.00,WeatherDisplay:10.37,2013-03-08 20:52:00,
2013-03-08 14:57:00,71.3,66.2,30.05,ESE,104,8.3,13.8,84,0.00,,FEW,0.00,WeatherDisplay:10.37,2013-03-08 20:57:00,
2013-03-08 15:02:00,71.1,66.0,30.06,ESE,111,12.1,15.0,84,0.00,,FEW,0.00,WeatherDisplay:10.37,2013-03-08 21:02:00,
2013-03-08 15:07:00,70.8,66.1,30.06,East,101,6.5,10.4,85,0.00,,FEW,0.00,WeatherDisplay:10.37,2013-03-08 21:07:00,
2013-03-08 15:12:00,71.1,66.4,30.05,SSE,154,6.0,10.4,85,0.00,,FEW,0.00,WeatherDisplay:10.37,2013-03-08 21:12:00,
2013-03-08 15:17:00,71.3,66.2,30.05,ESE,121,7.1,10.4,84,0.00,,FEW,0.00,WeatherDisplay:10.37,2013-03-08 21:17:00,
2013-03-08 15:22:00,71.5,66.4,30.05,SSE,152,10.8,18.4,84,0.00,,FEW,0.00,WeatherDisplay:10.37,2013-03-08 21:22:00,
2013-03-08 15:27:00,71.8,66.4,30.05,SE,128,12.6,20.7,83,0.00,,FEW,0.00,WeatherDisplay:10.37,2013-03-08 21:27:00,
2013-03-08 15:32:00,71.6,66.2,30.05,ESE,113,8.4,17.3,83,0.00,,FEW,0.00,WeatherDisplay:10.37,2013-03-08 21:32:00,
2013-03-08 15:37:00,71.5,66.4,30.05,East,88,7.7,12.7,84,0.00,,FEW,0.00,WeatherDisplay:10.37,2013-03-08 21:37:00,
2013-03-08 15:42:00,71.5,66.4,30.05,NE,50,19.5,22.6,84,0.00,,FEW,0.00,WeatherDisplay:10.37,2013-03-08 21:42:00,
2013-03-08 15:47:00,71.7,66.3,30.05,SE,144,8.1,12.7,83,0.00,,FEW,0.00,WeatherDisplay:10.37,2013-03-08 21:47:00,
2013-03-08 15:52:00,71.4,66.0,30.06,SE,132,12.2,15.0,83,0.00,,FEW,0.00,WeatherDisplay:10.37,2013-03-08 21:52:00,
2013-03-08 15:57:00,71.0,65.9,30.06,ESE,116,11.0,15.0,84,0.00,,FEW,0.00,WeatherDisplay:10.37,2013-03-08 21:57:00,
2013-03-08 16:02:00,70.8,65.7,30.06,SE,126,6.5,11.5,84,0.00,,FEW,0.00,WeatherDisplay:10.37,2013-03-08 22:02:00,
2013-03-08 16:07:00,70.9,65.8,30.07,SE,140,7.6,10.4,84,0.00,,FEW,0.00,WeatherDisplay:10.37,2013-03-08 22:07:00,
2013-03-08 16:12:00,70.7,65.6,30.07,SE,132,6.2,15.0,84,0.00,,FEW,0.00,WeatherDisplay:10.37,2013-03-08 22:12:00,
2013-03-08 16:17:00,70.6,65.5,30.07,SE,144,6.6,8.1,84,0.00,,FEW,0.00,WeatherDisplay:10.37,2013-03-08 22:17:00,
2013-03-08 16:22:00,70.4,65.3,30.07,ESE,112,3.7,9.2,84,0.00,,FEW,0.00,WeatherDisplay:10.37,2013-03-08 22:22:00,
2013-03-08 16:27:00,70.3,65.2,30.07,SE,142,2.7,6.9,84,0.00,,FEW,0.00,WeatherDisplay:10.37,2013-03-08 22:27:00,
2013-03-08 16:32:00,70.1,65.0,30.07,SE,135,8.3,15.0,84,0.00,,FEW,0.00,WeatherDisplay:10.37,2013-03-08 22:32:00,
2013-03-08 16:37:00,69.9,65.2,30.07,ESE,120,9.1,13.8,85,0.00,,FEW,0.00,WeatherDisplay:10.37,2013-03-08 22:37:00,
2013-03-08 16:42:00,69.7,65.0,30.07,ESE,109,4.9,8.1,85,0.00,,FEW,0.00,WeatherDisplay:10.37,2013-03-08 22:42:00,
2013-03-08 16:47:00,69.6,64.9,30.06,SSE,163,8.0,11.5,85,0.00,,FEW,0.00,WeatherDisplay:10.37,2013-03-08 22:47:00,
2013-03-08 16:52:00,69.4,65.0,30.05,East,99,9.7,13.8,86,0.00,,FEW,0.00,WeatherDisplay:10.37,2013-03-08 22:52:00,
2013-03-08 16:57:00,69.3,64.9,30.06,ESE,103,6.5,11.5,86,0.00,,FEW,0.00,WeatherDisplay:10.37,2013-03-08 22:57:00,
2013-03-08 17:02:00,69.2,65.2,30.07,ESE,109,6.0,11.6,87,0.00,,FEW,0.00,WeatherDisplay:10.37,2013-03-08 23:02:00,
2013-03-08 17:07:00,69.2,65.2,30.07,SE,140,3.9,5.8,87,0.00,,FEW,0.00,WeatherDisplay:10.37,2013-03-08 23:07:00,
2013-03-08 17:12:00,69.1,65.1,30.07,ESE,111,7.3,9.2,87,0.00,,FEW,0.00,WeatherDisplay:10.37,2013-03-08 23:12:00,
2013-03-08 17:17:00,69.0,65.0,30.07,ESE,108,6.6,12.7,87,0.00,,FEW,0.00,WeatherDisplay:10.37,2013-03-08 23:17:00,
2013-03-08 17:22:00,68.9,64.9,30.06,SE,126,4.9,8.1,87,0.00,,FEW,0.00,WeatherDisplay:10.37,2013-03-08 23:22:00,
2013-03-08 17:27:00,68.8,64.8,30.06,ESE,106,7.2,8.4,87,0.00,,FEW,0.00,WeatherDisplay:10.37,2013-03-08 23:27:00,
2013-03-08 17:32:00,68.8,65.1,30.06,ESE,118,8.2,11.6,88,0.00,,FEW,0.00,WeatherDisplay:10.37,2013-03-08 23:32:00,
2013-03-08 17:37:00,68.7,65.0,30.06,ESE,104,4.0,9.2,88,0.00,,FEW,0.00,WeatherDisplay:10.37,2013-03-08 23:37:00,
2013-03-08 17:42:00,68.6,64.9,30.06,East,83,8.7,12.7,88,0.00,,FEW,0.00,WeatherDisplay:10.37,2013-03-08 23:42:00,
2013-03-08 17:47:00,68.4,64.7,30.05,ESE,109,10.3,18.4,88,0.00,,FEW,0.00,WeatherDisplay:10.37,2013-03-08 23:47:00,
2013-03-08 17:52:00,68.4,64.7,30.05,East,92,8.9,11.5,88,0.00,,FEW,0.00,WeatherDisplay:10.37,2013-03-08 23:52:00,
2013-03-08 17:57:00,68.3,64.6,30.06,SE,126,8.6,17.3,88,0.00,,FEW,0.00,WeatherDisplay:10.37,2013-03-08 23:57:00,
2013-03-08 18:02:00,68.3,64.9,30.07,SE,134,6.1,8.1,89,0.00,,FEW,0.00,WeatherDisplay:10.37,2013-03-09 00:02:00,
2013-03-08 18:07:00,68.3,64.9,30.06,ESE,104,6.4,7.4,89,0.00,,FEW,0.00,WeatherDisplay:10.37,2013-03-09 00:07:00,
2013-03-08 18:12:00,68.1,64.7,30.06,ESE,105,7.9,11.5,89,0.00,,FEW,0.00,WeatherDisplay:10.37,2013-03-09 00:12:00,
2013-03-08 18:17:00,68.0,64.6,30.05,ESE,102,8.0,12.7,89,0.00,,FEW,0.00,WeatherDisplay:10.37,2013-03-09 00:17:00,
2013-03-08 18:22:00,67.9,64.5,30.05,East,89,7.7,11.5,89,0.00,,FEW,0.00,WeatherDisplay:10.37,2013-03-09 00:22:00,
2013-03-08 18:27:00,67.9,64.5,30.06,ESE,104,9.4,18.4,89,0.00,,FEW,0.00,WeatherDisplay:10.37,2013-03-09 00:27:00,
2013-03-08 18:32:00,67.9,64.5,30.06,NE,53,13.5,13.5,89,0.00,,FEW,0.00,WeatherDisplay:10.37,2013-03-09 00:32:00,
2013-03-08 18:37:00,67.9,64.9,30.06,SE,127,8.1,11.5,90,0.00,,FEW,0.00,WeatherDisplay:10.37,2013-03-09 00:37:00,
2013-03-08 18:42:00,67.8,64.8,30.07,ESE,106,3.7,6.9,90,0.00,,FEW,0.00,WeatherDisplay:10.37,2013-03-09 00:42:00,
2013-03-08 18:47:00,67.7,64.7,30.07,ESE,114,4.8,5.8,90,0.00,,FEW,0.00,WeatherDisplay:10.37,2013-03-09 00:47:00,
2013-03-08 18:52:00,67.6,64.6,30.07,SSE,149,5.6,8.1,90,0.00,,FEW,0.00,WeatherDisplay:10.37,2013-03-09 00:52:00,
2013-03-08 18:57:00,67.5,64.5,30.06,ESE,122,8.0,9.2,90,0.00,,FEW,0.00,WeatherDisplay:10.37,2013-03-09 00:57:00,
2013-03-08 19:02:00,67.5,64.5,30.07,East,95,4.3,7.4,90,0.00,,FEW,0.00,WeatherDisplay:10.37,2013-03-09 01:02:00,
2013-03-08 19:07:00,67.4,64.4,30.06,East,95,4.1,5.8,90,0.00,,FEW,0.00,WeatherDisplay:10.37,2013-03-09 01:07:00,
2013-03-08 19:12:00,67.4,64.4,30.06,East,94,7.6,9.2,90,0.00,,FEW,0.00,WeatherDisplay:10.37,2013-03-09 01:12:00,
2013-03-08 19:17:00,67.4,64.4,30.06,SE,136,6.4,11.6,90,0.00,,FEW,0.00,WeatherDisplay:10.37,2013-03-09 01:17:00,
2013-03-08 19:22:00,67.4,64.4,30.06,SE,145,5.8,8.1,90,0.00,,FEW,0.00,WeatherDisplay:10.37,2013-03-09 01:22:00,
2013-03-08 19:27:00,67.3,64.3,30.06,SSE,152,7.0,11.5,90,0.00,,FEW,0.00,WeatherDisplay:10.37,2013-03-09 01:27:00,
2013-03-08 19:32:00,67.4,64.4,30.05,ESE,111,6.2,9.2,90,0.00,,FEW,0.00,WeatherDisplay:10.37,2013-03-09 01:32:00,
2013-03-08 19:37:00,67.3,64.3,30.05,SSE,149,8.3,15.0,90,0.00,,FEW,0.00,WeatherDisplay:10.37,2013-03-09 01:37:00,
2013-03-08 19:42:00,67.3,64.6,30.04,ESE,115,7.9,11.6,91,0.00,,FEW,0.00,WeatherDisplay:10.37,2013-03-09 01:42:00,
2013-03-08 19:47:00,67.2,64.5,30.04,SE,124,7.7,12.7,91,0.00,,FEW,0.00,WeatherDisplay:10.37,2013-03-09 01:47:00,
2013-03-08 19:52:00,67.3,64.6,30.04,ESE,120,6.8,9.2,91,0.00,,FEW,0.00,WeatherDisplay:10.37,2013-03-09 01:52:00,
2013-03-08 19:57:00,67.3,64.6,30.04,SE,132,9.1,11.5,91,0.00,,FEW,0.00,WeatherDisplay:10.37,2013-03-09 01:57:00,
2013-03-08 20:02:00,67.3,64.6,30.04,SE,128,7.6,13.8,91,0.00,,FEW,0.00,WeatherDisplay:10.37,2013-03-09 02:02:00,
2013-03-08 20:07:00,67.3,64.6,30.04,SE,125,8.1,12.7,91,0.00,,FEW,0.00,WeatherDisplay:10.37,2013-03-09 02:07:00,
2013-03-08 20:12:00,67.3,64.6,30.04,East,90,7.9,11.5,91,0.00,,FEW,0.00,WeatherDisplay:10.37,2013-03-09 02:12:00,
2013-03-08 20:17:00,67.3,64.6,30.05,SE,142,6.0,13.7,91,0.00,,FEW,0.00,WeatherDisplay:10.37,2013-03-09 02:17:00,
2013-03-08 20:22:00,67.4,64.7,30.05,SE,130,9.2,11.5,91,0.00,,FEW,0.00,WeatherDisplay:10.37,2013-03-09 02:22:00,
2013-03-08 20:27:00,67.4,64.7,30.05,ESE,107,8.0,12.7,91,0.00,,FEW,0.00,WeatherDisplay:10.37,2013-03-09 02:27:00,
2013-03-08 20:32:00,67.5,64.8,30.05,ESE,111,7.8,10.4,91,0.00,,FEW,0.00,WeatherDisplay:10.37,2013-03-09 02:32:00,
2013-03-08 20:37:00,67.6,64.6,30.05,ESE,103,6.5,9.2,90,0.00,,FEW,0.00,WeatherDisplay:10.37,2013-03-09 02:37:00,
2013-03-08 20:42:00,67.7,64.7,30.05,ESE,118,8.4,13.8,90,0.00,,FEW,0.00,WeatherDisplay:10.37,2013-03-09 02:42:00,
2013-03-08 20:47:00,67.7,64.7,30.05,SSE,151,6.6,12.7,90,0.00,,FEW,0.00,WeatherDisplay:10.37,2013-03-09 02:47:00,
2013-03-08 20:52:00,67.8,64.8,30.05,SE,145,8.7,12.7,90,0.00,,FEW,0.00,WeatherDisplay:10.37,2013-03-09 02:52:00,
2013-03-08 20:57:00,67.8,64.8,30.05,ESE,109,10.5,15.0,90,0.00,,FEW,0.00,WeatherDisplay:10.37,2013-03-09 02:57:00,
2013-03-08 21:02:00,67.9,64.9,30.05,SE,141,9.2,11.5,90,0.00,,FEW,0.00,WeatherDisplay:10.37,2013-03-09 03:02:00,
2013-03-08 21:07:00,67.9,64.9,30.05,SE,138,8.7,11.5,90,0.00,,FEW,0.00,WeatherDisplay:10.37,2013-03-09 03:07:00,
2013-03-08 21:12:00,67.9,64.9,30.04,South,177,12.1,17.3,90,0.00,,FEW,0.00,WeatherDisplay:10.37,2013-03-09 03:12:00,
2013-03-08 21:17:00,67.9,64.9,30.04,SE,125,8.4,10.5,90,0.00,,FEW,0.00,WeatherDisplay:10.37,2013-03-09 03:17:00,
2013-03-08 21:22:00,67.9,64.9,30.04,SE,133,6.0,10.4,90,0.00,,FEW,0.00,WeatherDisplay:10.37,2013-03-09 03:22:00,
2013-03-08 21:27:00,67.9,64.9,30.04,SE,126,5.1,9.2,90,0.00,,FEW,0.00,WeatherDisplay:10.37,2013-03-09 03:27:00,
2013-03-08 21:32:00,67.9,64.9,30.04,SE,143,7.2,12.7,90,0.00,,FEW,0.00,WeatherDisplay:10.37,2013-03-09 03:32:00,
2013-03-08 21:37:00,67.9,64.9,30.04,South,169,5.4,11.6,90,0.00,,FEW,0.00,WeatherDisplay:10.37,2013-03-09 03:37:00,
2013-03-08 21:42:00,67.9,64.9,30.04,SSE,154,7.7,10.4,90,0.00,,FEW,0.00,WeatherDisplay:10.37,2013-03-09 03:42:00,
2013-03-08 21:47:00,67.9,65.2,30.04,SSE,150,6.3,6.9,91,0.00,,FEW,0.00,WeatherDisplay:10.37,2013-03-09 03:47:00,
2013-03-08 21:52:00,68.0,65.3,30.04,SE,139,8.1,12.7,91,0.00,,FEW,0.00,WeatherDisplay:10.37,2013-03-09 03:52:00,
2013-03-08 21:57:00,68.0,65.3,30.04,SSE,151,7.7,12.7,91,0.00,,FEW,0.00,WeatherDisplay:10.37,2013-03-09 03:57:00,
2013-03-08 22:02:00,68.0,65.3,30.05,South,178,4.6,9.2,91,0.00,,FEW,0.00,WeatherDisplay:10.37,2013-03-09 04:02:00,
2013-03-08 22:07:00,68.0,65.3,30.05,SSE,154,6.6,7.4,91,0.00,,FEW,0.00,WeatherDisplay:10.37,2013-03-09 04:07:00,
2013-03-08 22:12:00,68.0,65.3,30.05,SE,134,11.7,15.0,91,0.00,,FEW,0.00,WeatherDisplay:10.37,2013-03-09 04:12:00,
2013-03-08 22:17:00,68.0,65.3,30.05,SSE,162,7.5,11.5,91,0.00,,FEW,0.00,WeatherDisplay:10.37,2013-03-09 04:17:00,
2013-03-08 22:22:00,68.0,65.3,30.05,SE,133,8.6,12.6,91,0.00,,FEW,0.00,WeatherDisplay:10.37,2013-03-09 04:22:00,
2013-03-08 22:27:00,68.1,65.4,30.05,SE,133,8.7,11.5,91,0.00,,FEW,0.00,WeatherDisplay:10.37,2013-03-09 04:27:00,
2013-03-08 22:32:00,68.1,65.4,30.05,SE,124,10.1,12.7,91,0.00,,FEW,0.00,WeatherDisplay:10.37,2013-03-09 04:32:00,
2013-03-08 22:37:00,68.1,65.4,30.05,ESE,120,4.7,8.1,91,0.00,,FEW,0.00,WeatherDisplay:10.37,2013-03-09 04:37:00,
2013-03-08 22:42:00,68.0,65.3,30.05,SE,130,6.7,11.5,91,0.00,,FEW,0.00,WeatherDisplay:10.37,2013-03-09 04:42:00,
2013-03-08 22:47:00,68.0,65.3,30.05,SE,133,6.8,11.5,91,0.00,,FEW,0.00,WeatherDisplay:10.37,2013-03-09 04:47:00,
2013-03-08 22:52:00,68.0,65.3,30.05,SE,142,5.9,9.2,91,0.00,,FEW,0.00,WeatherDisplay:10.37,2013-03-09 04:52:00,
2013-03-08 22:57:00,68.0,65.3,30.05,SE,134,6.5,8.1,91,0.00,,FEW,0.00,WeatherDisplay:10.37,2013-03-09 04:57:00,
2013-03-08 23:00:00,68.0,65.3,30.05,SSE,147,6.5,10.4,91,0.00,,FEW,0.00,WeatherDisplay:10.37,2013-03-09 05:00:00,
2013-03-08 23:01:00,68.0,65.3,30.04,SE,137,4.3,6.9,91,0.00,,FEW,0.00,WeatherDisplay:10.37,2013-03-09 05:01:00,
2013-03-08 23:06:00,68.0,65.3,30.04,SSE,149,8.9,9.2,91,0.00,,FEW,0.00,WeatherDisplay:10.37,2013-03-09 05:06:00,
2013-03-08 23:11:00,67.9,65.5,30.05,ESE,111,6.5,10.5,92,0.00,,FEW,0.00,WeatherDisplay:10.37,2013-03-09 05:11:00,
2013-03-08 23:16:00,67.9,65.5,30.04,SSE,156,7.3,10.4,92,0.00,,FEW,0.00,WeatherDisplay:10.37,2013-03-09 05:16:00,
2013-03-08 23:21:00,68.0,65.6,30.05,ESE,109,7.3,8.4,92,0.00,,FEW,0.00,WeatherDisplay:10.37,2013-03-09 05:21:00,
2013-03-08 23:26:00,68.0,65.6,30.05,East,96,6.7,8.4,92,0.00,,FEW,0.00,WeatherDisplay:10.37,2013-03-09 05:26:00,
2013-03-08 23:31:00,68.0,65.6,30.05,ESE,102,4.2,6.9,92,0.00,,FEW,0.00,WeatherDisplay:10.37,2013-03-09 05:31:00,
2013-03-08 23:36:00,68.0,65.6,30.04,SE,138,3.9,8.1,92,0.00,,FEW,0.00,WeatherDisplay:10.37,2013-03-09 05:36:00,
2013-03-08 23:41:00,68.0,65.6,30.04,SSE,153,6.5,10.4,92,0.00,,FEW,0.00,WeatherDisplay:10.37,2013-03-09 05:41:00,
2013-03-08 23:46:00,68.0,65.6,30.04,SSE,164,5.9,10.4,92,0.00,,FEW,0.00,WeatherDisplay:10.37,2013-03-09 05:46:00,
2013-03-08 23:51:00,68.0,65.6,30.04,SE,128,8.8,11.5,92,0.00,,FEW,0.00,WeatherDisplay:10.37,2013-03-09 05:51:00,
2013-03-08 23:56:00,68.0,65.6,30.03,SSE,158,6.4,11.5,92,0.00,,FEW,0.00,WeatherDisplay:10.37,2013-03-09 05:56:00,